Location: Newark
(42.5441°N, 12.7211°E)
Time: 20:43:45
(UTC+00:00)

ISS - Visible Passes

Search period start: 08 December 2019 00:00
Search period end: 18 December 2019 00:00
Orbit: 411 x 421 km, 51.6° (Epoch: 08 December)

Date Brightness Start Highest point End Pass type
(mag) Time Alt. Az. Time Alt. Az. Time Alt. Az.
08 Dec -3.7 17:27:31 10° WNW 17:30:52 72° SW 17:31:04 68° S visible
09 Dec -3.8 16:39:01 10° NW 16:42:22 69° NNE 16:45:22 12° ESE visible
09 Dec -0.8 18:16:41 10° W 18:18:20 15° WSW 18:18:20 15° WSW visible
10 Dec -1.6 17:27:34 10° WNW 17:30:25 26° SW 17:33:02 11° SSE visible
11 Dec -2.6 16:38:48 10° WNW 16:42:01 44° SW 16:45:13 10° SSE visible
13 Dec -0.6 16:39:11 10° W 16:41:24 17° SW 16:43:37 10° S visible
